星链-30308 (STARLINK-30308 )

导读 | 星芒AI

STARLINK-30308 是 SpaceX Starlink 卫星互联网项目中的第 30308 颗卫星。该卫星属于 Starlink 群体中的一颗低轨通信卫星,旨在为全球用户提供高速、低延迟的互联网服务。它运行在近地轨道,配备先进通信设备,支持宽带数据传输。该卫星的发射和运行有助于扩展 Starlink 网络覆盖范围,提升偏远地区的网络接入能力。其部署符合 SpaceX 打造全球卫星互联网的长期目标。

基本信息
目录编号:
57742
目录名称:
STARLINK-30308
国际标识:
2023-131L
轨道中心:
EARTH
卫星名称:
星链-30308
卫星全名:
星链-30308 (STARLINK-30308 )
卫星状态:
在轨 (已飞行790 天)
发射日期:
2023-09-01 UTC
国别 :
美国 (US)
星等 :
--
轨道信息
数据来源 国际轨道数据
星历时间: 2025-10-30T08:04:45+0800
18小时前
查看轨道信息
半长轴: 6937.214km
偏心率: 0.0001138
轨道倾角: 43.003°
近地点辐角 264.253°
升交点赤经 162.068°
平近点角 95.818°
近地点: 558.289km
远地点: 559.869km
周期: 95.838分钟
每日圈数: 15.025371
详细信息
固有亮度:
5
最大亮度:
0.3
卫星平台:
Starlink v2.0 mini
覆盖范围:
全球
运营商:
太空探索技术公司
运营商所在国:
美国
制造商(研发单位):
太空探索技术公司
制造商所在国:
美国
使用方式:
暂无
卫星简介
星链(Starlink)计划是由太空探索技术公司(SpaceX)提出的一个巨型低轨卫星互联网星座项目,计划在2019年至2024年间在太空搭建由约1.2万颗卫星组成的“星链”网络,其中1584颗将部署在地球上空550千米处的近地轨道,并从2020年开始工作。该卫星仍在工作。
2D轨道图
3D轨道图
轨道高度分析图
轨道倾角分析图
轨道综合分析图
查看轨道综合分析图